Location: Unspecified
(48.5670°N, 0.0000°E)
Time: 11:20:37
(UTC+00:00)

Tiros 1 - Pass Details

Date: 30 October 2020
Orbit: 630 x 664 km, 48.4° (Epoch: 03 December)

Event Time Altitude Azimuth Distance (km) Brightness Sun altitude
Exits shadow 05:01:54 33° 261° (W) 1,054 7.7 -17.3°
Maximum altitude 05:03:56 87° 173° (S) 636 7.0 -16.9°
Drops below altitude 10° 05:08:34 10° 86° (E) 2,009 11.0 -16.2°
Sets 05:10:53 0° 86° (E) 2,919 12.3 -15.8°
